Regional Weather Roundup
Issued by NWS

Home | Current Version | Previous Version | Text Only | Print | Product List | Glossary Off
Versions: 1 2 3 4 5 6 7 8 9 10 11 12 13 14 15 16 17 18 19 20 21 22 23 24 25 26 27 28 29 30 31 32 33 34 35 36 37 38 39 40 41 42 43 44 45 46 47 48 49 50

000
ASUS45 KTFX 210519
RWRMT
MONTANA HOURLY WEATHER ROUNDUP
NATIONAL WEATHER SERVICE GREAT FALLS MT
1019 PM MST SAT DEC 20 2014

NOTE: "FAIR" INDICATES FEW OR NO CLOUDS BELOW 12000 FEET WITH NO
SIGNIFICANT WEATHER AND/OR OBSTRUCTIONS TO VISIBILITY.

* THESE STATIONS ARE NOT UNDER NWS QUALITY CONTROL. THEY DO NOT
   REPORT WEATHER SUCH AS PRECIPITATION OR FOG.

MTZ001>007-043-210600-
WEST OF THE DIVIDE
CITY           SKY/WX    TMP DP  RH WIND       PRES   REMARKS
KALISPELL      CLOUDY    32  32 100 CALM      29.63F
MISSOULA       FOG       30  30 100 W3        29.68F
BUTTE          CLOUDY    34  25  70 S8        29.72S WCI  27
MULLAN PASS    HVY SNOW  30  27  89 VRB6      29.55F VSB M1/4 WCI  24
* ESSEX        N/A       31  30  96 N/A        N/A
* EUREKA APT   CLOUDY    37  30  76 SE13G20   29.57F WCI  29
* HAMILTON APT CLOUDY    39  34  82 S13       29.67F WCI  31
* LIBBY APT    CLOUDY   N/A N/A N/A CALM       N/A
* LINCOLN      N/A       33  26  75 W5G11      N/A   WCI  28
* LOOKOUT PASS N/A       32  32 100 S4G9       N/A
* POLSON       N/A       33  33 100 S1         N/A
* RONAN APT    CLOUDY    34  32  92 N/A        N/A
* SEELEY LAKE  N/A       27  26  96 N/A        N/A
* THOMP F APT  CLOUDY    28  27  96 S4G14      N/A
* YAAK HILL    N/A       35  33  92 E1         N/A
$$

MTZ008-052>055-210600-
SOUTHWEST MONTANA
CITY           SKY/WX    TMP DP  RH WIND       PRES   REMARKS
BOZEMAN        CLOUDY    30  27  89 S8        29.72S WCI  22
DILLON         CLOUDY    37  27  67 S12       29.75F WCI  29
* W YELLOWSTON CLOUDY    29  27  92 SW7G16     N/A   WCI  22
* THREE FORKS  CLOUDY    43  43 100 S24G31     N/A
* BOULDER HILL N/A       32  20  61 SW17       N/A   WCI  21
* MONIDA PASS  N/A       27  27 100 SE14G19    N/A   WCI  16
* RAYNOLDS PAS N/A       29  17  61 S13G20     N/A   WCI  19
* WHITEHALL    N/A       41  24  51 SW15G23    N/A
* WISE RIVER   N/A       30  25  82 N3G11      N/A
$$

MTZ009>010-012-014-046-048-049-054-210600-
EAST SLOPES AND CENTRAL MONTANA
CITY           SKY/WX    TMP DP  RH WIND       PRES   REMARKS
CUT BANK       CLOUDY    32  25  75 S7        29.50F WCI  25
GREAT FALLS    CLOUDY    37  27  67 SW10      29.58F WCI  30
HELENA         CLOUDY    34  28  79 W3        29.65F
MALMSTROM AFB  CLOUDY    39  27  62 S12G23    29.59F WCI  32
* CONRAD       CLOUDY    30  28  92 S7         N/A   WCI  23
* DEARBORN     N/A       45  25  45 S15G24     N/A
* EAST GLACIER N/A       36  27  70 W27G41     N/A   WCI  24
* MONARCH      N/A       35  17  48 S11G20     N/A   WCI  27
* PENDROY      N/A       30  27  89 SW10       N/A   WCI  21
* ROGERS PASS  N/A       32  24  72 SE16G29    N/A   WCI  21
* SWEET GRASS  N/A       31  21  66 S16        N/A   WCI  20
* WHITE SULPH  N/A       36  24  62 S15G21     N/A   WCI  27
$$

MTZ011-013-016-021-035-040-045-047-050-051-210600-
NORTH CENTRAL MONTANA
CITY           SKY/WX    TMP DP  RH WIND       PRES   REMARKS
HAVRE          CLEAR     27  21  78 SW5       29.57F WCI  21
LEWISTOWN      PTCLDY    37  25  62 SW15      29.62F WCI  28
* N BAR RANCH  CLOUDY    37  23  57 SW10G20   29.65F WCI  30
* CHINOOK      CLEAR     27  21  78 E6        29.59F WCI  20
* CHESTER      N/A       24  21  88 E2         N/A
* DENTON       N/A       35  24  64 S11        N/A   WCI  27
* GEYSER       N/A       31  19  61 E4         N/A
* JUDITH GAP   N/A       27  22  81 SE14       N/A   WCI  16
* LOMA         N/A       30  24  78 NE6        N/A   WCI  24
$$

MTZ017>020-022>027-061-062-210600-
NORTHEAST MONTANA
CITY           SKY/WX    TMP DP  RH WIND       PRES   REMARKS
GLASGOW        CLEAR     25  19  78 E10       29.65F WCI  15
GLENDIVE       CLEAR     28  21  75 S3        29.73F
JORDAN         CLEAR     25  19  78 CALM      29.67F
SIDNEY         CLEAR     25  19  78 S5        29.74F WCI  19
WOLF POINT     CLEAR     19  16  88 E5        29.70F WCI  12
* BEAVER HILL  N/A       26  21  81 SE2        N/A
* CIRCLE       N/A       30  24  78 N/A        N/A
* LINDSAY DVD  N/A       32  20  61 S5         N/A   WCI  27
* PLENTYWOOD A CLEAR     27  21  78 NE6       29.68F WCI  20
* POPLAR APT   CLEAR     27  23  85 CALM      29.70F
* SACO         N/A       23  20  88 SE2        N/A
$$

MTZ028>042-056>058-210600-
SOUTHCENTRAL AND SOUTHEAST MONTANA
CITY           SKY/WX    TMP DP  RH WIND       PRES   REMARKS
BAKER          CLEAR     25  21  85 E5        29.74F WCI  19
BILLINGS       PTCLDY    32  21  64 SW12      29.70F WCI  23
LIVINGSTON     MOCLDY    43  23  45 SW32G43   29.67S
MILES CITY     CLEAR     28  21  75 S9        29.71F WCI  19
* FORSYTH APT  CLEAR     28  25  89 CALM      29.70F
* LAUREL APT   PTCLDY    30  16  56 SW8        N/A   WCI  22
* ROUNDUP APT  PTCLDY    36  21  54 S9         N/A   WCI  29
* ALZADA       N/A       31  23  72 E2         N/A
* HYSHAM       N/A       36  19  50 W3         N/A
* LAME DEER    N/A       31  23  72 SW2        N/A
* REED POINT   N/A       27  24  88 E1         N/A
* ROSCOE HILL  N/A       40  12  32 SW15G38    N/A   WCI  32
$$

REGIONAL REPORTS...DAKOTAS
CITY           SKY/WX    TMP DP  RH WIND       PRES   REMARKS
WILLISTON      CLEAR     23  19  85 CALM      29.72F
DICKINSON      PTCLDY    28  21  75 SW6       29.73F WCI  21
BEACH          CLEAR     23  23 100 S7        29.74F WCI  15
CROSBY         CLEAR     25  25 100 S12       29.69F WCI  14
TIOGA          CLEAR     25  25 100 W5        29.72F WCI  19
WATFORD CITY   CLEAR     25  21  85 SW7       29.71F WCI  17
BISMARCK       CLEAR     18  18 100 E3        29.79F
GRAND FORKS    FOG       30  28  92 S15       29.85F WCI  19
FARGO          FOG       34  28  79 S17G28    29.89F WCI  23
BUFFALO SD     MOCLDY    30  23  75 E5        29.69F WCI  25
RAPID CITY     CLOUDY    34  27  76 CALM      29.79F
$$

REGIONAL REPORTS...WYOMING/IDAHO/WASHINGTON
CITY           SKY/WX    TMP DP  RH WIND       PRES   REMARKS
GILLETTE       PTCLDY    34  23  64 SW15      29.75F WCI  24
SHERIDAN       CLEAR     21  18  88 CALM      29.73F
CODY           MOCLDY    34  21  59 S9        29.74F WCI  27
YELLOWSTONE LA MOCLDY    27  23  85 VRB3      29.86F
SALMON         CLOUDY    37  30  76 S9        29.78F WCI  30
MULLAN PASS    HVY SNOW  30  27  89 VRB6      29.55S VSB M1/4 WCI  24
SAND POINT     RAIN      36  36 100 CALM      29.58F VSB 2
SPOKANE        LGT RAIN  41  39  93 S15G22    29.53F
$$

REGIONAL REPORTS...ALBERTA
CITY           SKY/WX    TMP DP  RH WIND       PRES   REMARKS
CALGARY        MOCLDY    28  19  69 S2        29.35F
LETHBRIDGE     MOCLDY    28  25  89 S20       29.45F WCI  15
MEDICINE HAT   CLEAR     30  23  75 SW13      29.48F WCI  20
EDMONTON       PTCLDY    23  18  81 SE16      29.33F WCI  10
WATERTON GATE  N/A       37  28  70 SW20G28    N/A   WCI  27
CARDSTON       N/A       34  27  76 S6         N/A   WCI  29
MILK RIVER     N/A       28  21  75 SW12       N/A   WCI  18
$$

REGIONAL REPORTS...SASKATCHEWAN
CITY           SKY/WX    TMP DP  RH WIND       PRES   REMARKS
SWIFT CURRENT  CLEAR     25  19  78 S13       29.55F WCI  13
REGINA         FOG       18  16  92 SE3       29.64F VSB M1/4
VAL MARIE      N/A       18  18 100 SW3        N/A
ASSINIBOIA     N/A       23  19  85 SW6        N/A   WCI  16
CORONACH       N/A       23  18  81 E1         N/A

$$




USA.gov is the U.S. government's official web portal to all federal, state and local government web resources and services.